893  
SXUS52 KJAX 211313  
OSOJAX  
OTHER SURFACE OBSERVATIONS  
NATIONAL WEATHER SERVICE JACKSONVILLE FL  
900 AM EDT SAT OCT 21 2017  
 
FLZ020>025-030>033-035>038-040-211400-   
..FLORIDA
 
 
 
CITY SKY/WX TMP DP RH WIND PRES REMARKS  
CECIL FIELD SUNNY 68 68 100 N5 30.19R  
HERLONG FIELD NOT AVBL  
FERNANDINA BCH NOT AVBL  
LAKE CITY FAIR 63 63 100 NE6 30.19R  
JUNIPER SPGS NOT AVBL  
BUNNELL NOT AVBL  
KEYSTONE HGTS FAIR 70 66 88 NE6 30.19R  

 
 
GAZ132>136-149>154-162>166-211400-   
..GEORGIA
 
 
 
CITY SKY/WX TMP DP RH WIND PRES REMARKS  
JESUP NOT AVBL  
HOMERVILLE FAIR 64 63 94 NE5 30.22R  
SWAINSBORO FAIR 59 59 100 MISG 30.29R  
CORDELE NOT AVBL  
EASTMAN FAIR 55 55 100 CALM 30.29R  

 
 
PLEASE NOTE: THESE OBSERVATIONS ARE NOT QUALITY CONTROLLED AND MAY  
NOT BE AVAILABLE AT ALL TIMES.  

 
 
 
CLICK HERE TO GO TO PREVIOUS BULLETINS.

The Nexlab FL Page
The Nexlab GA Page Main Text Page